Flag Weather past 2 weeks in Yekaterinburg, Russia

Now
16 °F

Mostly cloudy.


Feels Like: 2 °F
Forecast: -4 / 14 °F
Wind: 13 mph from North

Location: Ekaterinburg

Current Time: Nov 26, 2014 at 11:54:31 PM

Latest Report: Nov 26, 2014 at 11:30 PM


Visibility: N/A

Pressure: 30.09 "Hg

Humidity: 73%

Dew point: 9 °F

Location of YekaterinburgLocation

Historic Weather in Yekaterinburg — Graph

°F

Yekaterinburg temperature yesterday

Maximum temperature yesterday: 18 °F (at 12:30 PM)
Minimum temperature yesterday: 7 °F (at 12:00 AM)
Average temperature yesterday: 13 °F

Past Weeks' High & Low Weather Summary

 TemperatureHumidityPressure
High36 °F (Nov 13, 8:30 AM)100% (Nov 11, 11:00 PM)30.51 "Hg (Nov 11, 11:00 PM)
Low-11 °F (Nov 24, 2:00 AM)51% (Nov 24, 7:30 PM)29.80 "Hg (Nov 23, 1:00 AM)
Average20 °F86%30.21 "Hg
* Reported Nov 11 10:00 PM — Nov 26 10:30 PM, Yekaterinburg, Weather by CustomWeather, © 2014

Note: Actual official high and low records may vary slightly from our data, if they occured in-between our weather recording intervals... More about our weather records

Advertising

Yekaterinburg weather history for previous 24 hours

 ConditionsComfort  
Time TempWeatherWind HumidityBarometerVisibility
10:30 PM
Nov 26
18 °FSnow flurries. Mostly cloudy.15 mph79%30.07 "HgN/A
10:00 PM18 °FSnow flurries. Mostly cloudy.15 mph86%30.04 "Hg4 mi
9:30 PM21 °FSnow flurries. Mostly cloudy.20 mph93%30.01 "Hg1 mi
9:00 PM23 °FSnow flurries. Mostly cloudy.15 mph86%29.98 "Hg2 mi
8:30 PM23 °FSnow flurries. Mostly cloudy.17 mph86%29.95 "Hg3 mi
8:00 PM21 °FSnow flurries. Mostly cloudy.15 mph86%29.95 "Hg4 mi
7:30 PM21 °FMostly cloudy.17 mph86%29.92 "HgN/A
7:00 PM19 °FSnow flurries. Mostly cloudy.17 mph86%29.92 "HgN/A
6:30 PM19 °FMostly cloudy.20 mph86%29.92 "HgN/A
6:00 PM19 °FSnow flurries. Mostly cloudy.20 mph86%29.92 "Hg4 mi
5:30 PM19 °FSnow flurries. Mostly cloudy.22 mph86%29.92 "Hg3 mi
5:00 PM19 °FSnow flurries. Mostly cloudy.20 mph86%29.92 "Hg2 mi
4:30 PM18 °FSnow flurries. Overcast.22 mph93%29.89 "Hg2 mi
4:00 PM19 °FSnow flurries. Overcast.22 mph86%29.89 "Hg1 mi
3:30 PM19 °FSnow showers. Overcast.20 mph86%29.89 "Hg1 mi
3:00 PM19 °FSnow flurries. Mostly cloudy.20 mph79%29.89 "HgN/A
2:30 PM19 °FSnow flurries. Mostly cloudy.22 mph79%29.89 "Hg4 mi
2:00 PM19 °FSnow flurries. Mostly cloudy.24 mph79%29.89 "Hg4 mi
1:30 PM19 °FSnow flurries. Partly sunny.20 mph79%29.89 "Hg4 mi
1:00 PM19 °FPartly sunny.26 mph79%29.89 "Hg3 mi
12:30 PM18 °FPartly sunny.22 mph86%29.89 "Hg4 mi
12:00 PM18 °FSnow flurries. Partly sunny.24 mph86%29.89 "Hg4 mi
11:30 AM18 °FSnow flurries. Mostly cloudy.24 mph86%29.89 "Hg4 mi
11:00 AM18 °FSnow flurries. Overcast.20 mph86%29.92 "Hg4 mi
10:30 AM18 °FLight snow. Mostly cloudy.22 mph79%29.92 "Hg4 mi
10:00 AM16 °FLight snow. Mostly cloudy.22 mph86%29.92 "Hg1 mi
9:30 AM16 °FLight snow. Mostly cloudy.22 mph86%29.95 "Hg3 mi
9:00 AM16 °FLight snow. Mostly cloudy.24 mph86%29.95 "Hg2 mi
8:30 AM16 °FLight snow. Mostly cloudy.22 mph86%29.98 "Hg3 mi
8:00 AM16 °FLight snow. Mostly cloudy.22 mph86%29.98 "Hg1 mi
7:30 AM16 °FLight snow. Mostly cloudy.22 mph86%29.98 "Hg1 mi
7:00 AM16 °FLight snow. Mostly cloudy.22 mph86%29.98 "Hg4 mi
6:30 AM18 °FLight snow. Mostly cloudy.20 mph86%29.98 "Hg4 mi
6:00 AM18 °FLight snow. Mostly cloudy.22 mph86%29.98 "HgN/A
5:30 AM18 °FLight snow. Mostly cloudy.17 mph86%30.01 "HgN/A
5:00 AM18 °FLight snow. Mostly cloudy.20 mph86%30.01 "Hg4 mi
4:30 AM18 °FLight snow. Mostly cloudy.20 mph86%30.04 "Hg4 mi
4:00 AM18 °FLight snow. Mostly cloudy.15 mph86%30.07 "HgN/A
3:30 AM18 °FLight snow. Mostly cloudy.15 mph86%30.07 "Hg4 mi
3:00 AM18 °FLight snow. Mostly cloudy.17 mph79%30.09 "Hg4 mi
2:30 AM16 °FLight snow. Mostly cloudy.17 mph86%30.09 "Hg4 mi
2:00 AM16 °FLight snow. Mostly cloudy.17 mph86%30.12 "HgN/A
1:30 AM16 °FLight snow. Mostly cloudy.15 mph86%30.15 "HgN/A
1:00 AM16 °FLight snow. Mostly cloudy.15 mph86%30.15 "HgN/A
12:30 AM16 °FLight snow. Mostly cloudy.20 mph86%30.12 "HgN/A
12:00 AM16 °FLight snow. Mostly cloudy.15 mph86%30.15 "HgN/A
11:30 PM
Nov 25
16 °FLight snow. Mostly cloudy.22 mph86%30.15 "Hg4 mi
11:00 PM16 °FLight snow. Mostly cloudy.17 mph86%30.15 "Hg4 mi
Weather by CustomWeather, © 2014

See weather overviewHow to use our weather pages